Weather History for Havre, MT

Change the Weather History Date:

Saturday, December 21, 2013

  Actual Average Record
Temperature  
Mean Temperature 6 °F 18 °F  
Max Temperature 8 °F 29 °F 61 °F (1888)
Min Temperature 4 °F 6 °F -44 °F (1989)
Degree Days  
Heating Degree Days 59 47  
Month to date heating degree days 1179 944  
Since 1 July heating degree days 3105 2987  
Cooling Degree Days 0 0  
Month to date cooling degree days 0 0  
Year to date cooling degree days 445 387  
Moisture  
Dew Point 1 °F    
Average Humidity 82    
Maximum Humidity 88    
Minimum Humidity 76    
Precipitation  
Precipitation 0.11 in 0.01 in 0.42 in (1939)
Month to date precipitation 0.97 0.26  
Year to date precipitation 18.84 11.06  
Snow  
Snow 1.00 in 0.30 in 5.50 in (1939)
Month to date snowfall 15.1 4.6  
Since 1 July snowfall 20.9 12.2  
Snow Depth 6.00 in    
Sea Level Pressure  
Sea Level Pressure 29.88 in    
Wind  
Wind Speed 7 mph (WNW)    
Max Wind Speed 17 mph    
Max Gust Speed 21 mph    
Visibility 4 miles    
Events Snow    
T = Trace of Precipitation, MM = Missing Value Source: NWS Daily Summary

Daily Weather History Graph

Daily Weather History Graph

Search for Another Location

Airport:

Trip Planner

Search our weather history database for the weather conditions in past years. The results will help you decide how hot, cold, wet, or windy it might be!

Date:

Astronomy

Dec. 21, 2013 Rise Set
Actual Time 8:08 AM MST 4:26 PM MST
Civil Twilight 7:31 AM MST 5:03 PM MST
Nautical Twilight 6:51 AM MST 5:43 PM MST
Astronomical Twilight 6:13 AM MST 6:21 PM MST
Moon 9:04 PM MST (12/21) 10:18 AM MST (12/21)
Length of Visible Light 9h 31m
Length of Day
8h 17m
Waning Gibbous, 84% of the Moon is Illuminated
Dec 21
Waning Gibbous
Dec 25
Last Quarter
Jan 1
New
Jan 7
First Quarter
Jan 15
Full

Hourly Weather History & Observations

Time (MST) Temp. Windchill Dew Point Humidity Pressure Visibility Wind Dir Wind Speed Gust Speed Precip Events Conditions
12:51 AM 5.0 °F -10.0 °F 1.4 °F 85% 29.58 in 2.5 mi ENE 10.4 mph - 0.00 in Snow Light Snow
12:53 AM 5.0 °F -10.0 °F 1.0 °F 84% 29.74 in 2.5 mi ENE 10.4 mph - 0.00 in Snow Light Snow
1:12 AM 6.1 °F -5.6 °F 1.9 °F 83% 29.58 in 1.5 mi ENE 6.9 mph - 0.00 in Snow Light Snow
1:24 AM 6.1 °F -7.8 °F 1.0 °F 80% 29.59 in 1.2 mi ENE 9.2 mph - 0.01 in Snow Light Snow
1:38 AM 6.1 °F -7.8 °F 1.9 °F 83% 29.59 in 1.8 mi ENE 9.2 mph - 0.02 in Snow Light Snow
1:53 AM 6.1 °F -5.6 °F 1.9 °F 83% 29.74 in 1.8 mi ENE 6.9 mph - 0.02 in Snow Light Snow
2:10 AM 6.1 °F -6.8 °F 1.0 °F 80% 29.60 in 2.0 mi ENE 8.1 mph - 0.00 in Snow Light Snow
2:29 AM 6.1 °F -5.6 °F 1.9 °F 83% 29.61 in 2.5 mi ENE 6.9 mph - 0.01 in Snow Light Snow
2:53 AM 6.1 °F -2.8 °F 1.9 °F 83% 29.78 in 2.5 mi NE 4.6 mph - 0.01 in Snow Light Snow
3:14 AM 6.1 °F -2.8 °F 1.9 °F 83% 29.63 in 2.0 mi NE 4.6 mph - 0.01 in Snow Light Snow
3:21 AM 7.0 °F -1.7 °F 1.9 °F 80% 29.64 in 1.2 mi NE 4.6 mph - 0.01 in Snow Light Snow
3:35 AM 6.1 °F -2.8 °F 1.9 °F 83% 29.64 in 2.0 mi ENE 4.6 mph - 0.01 in Snow Light Snow
3:53 AM 6.1 °F -4.3 °F 1.9 °F 83% 29.81 in 4.0 mi ENE 5.8 mph - 0.02 in Snow Light Snow
4:17 AM 6.1 °F -0.9 °F 1.9 °F 83% 29.66 in 5.0 mi ENE 3.5 mph - 0.00 in Snow Light Snow
4:50 AM 6.8 °F - 1.4 °F 79% 29.67 in 2.5 mi Calm Calm - 0.00 in Snow Light Snow
4:53 AM 7.0 °F - 1.9 °F 80% 29.83 in 2.5 mi Calm Calm - 0.00 in Snow Light Snow
5:01 AM 7.0 °F - 1.0 °F 77% 29.67 in 3.0 mi Calm Calm - 0.00 in Snow Light Snow
5:24 AM 6.1 °F -0.9 °F 1.9 °F 83% 29.69 in 2.0 mi NW 3.5 mph - 0.01 in Snow Light Snow
5:30 AM 6.1 °F -0.9 °F 1.9 °F 83% 29.69 in 1.8 mi WNW 3.5 mph - 0.01 in Snow Light Snow
5:53 AM 6.1 °F -2.8 °F 1.9 °F 83% 29.88 in 2.0 mi WNW 4.6 mph - 0.01 in Snow Light Snow
6:04 AM 7.0 °F -3.3 °F 1.9 °F 80% 29.72 in 1.5 mi WNW 5.8 mph - 0.01 in Snow Light Snow
6:13 AM 7.0 °F -1.7 °F 3.0 °F 84% 29.73 in 1.2 mi West 4.6 mph - 0.01 in Snow Light Snow
6:22 AM 7.0 °F 0.1 °F 3.0 °F 84% 29.73 in 1.8 mi West 3.5 mph - 0.01 in Snow Light Snow
6:29 AM 7.0 °F 0.1 °F 3.0 °F 84% 29.74 in 2.5 mi WSW 3.5 mph - 0.01 in Snow Light Snow
6:36 AM 7.0 °F 0.1 °F 3.0 °F 84% 29.74 in 3.0 mi SW 3.5 mph - 0.01 in Snow Light Snow
6:50 AM 6.8 °F -2.0 °F 3.2 °F 85% 29.74 in 2.5 mi SSW 4.6 mph - 0.02 in Snow Light Snow
6:53 AM 7.0 °F -3.3 °F 3.0 °F 84% 29.92 in 2.5 mi SSW 5.8 mph - 0.02 in Snow Light Snow
6:58 AM 7.0 °F -3.3 °F 3.0 °F 84% 29.75 in 3.0 mi SSW 5.8 mph - 0.00 in Snow Light Snow
7:32 AM 7.0 °F -3.3 °F 3.0 °F 84% 29.78 in 1.8 mi WSW 5.8 mph - 0.00 in Snow Light Snow
7:44 AM 7.0 °F -4.5 °F 3.0 °F 84% 29.78 in 1.8 mi SW 6.9 mph - 0.00 in Snow Light Snow
7:53 AM 7.0 °F -4.5 °F 3.0 °F 84% 29.95 in 2.0 mi SW 6.9 mph - 0.01 in Snow Light Snow
8:27 AM 8.1 °F -5.3 °F 3.0 °F 80% 29.80 in 1.5 mi West 9.2 mph - 0.00 in Snow Light Snow
8:32 AM 8.1 °F -4.3 °F 3.9 °F 83% 29.81 in 2.0 mi West 8.1 mph - 0.00 in Snow Light Snow
8:41 AM 8.1 °F -4.3 °F 3.9 °F 83% 29.81 in 4.0 mi NW 8.1 mph - 0.00 in Snow Light Snow
8:49 AM 8.6 °F -4.7 °F 3.2 °F 79% 29.82 in 1.8 mi NW 9.2 mph - 0.00 in Snow Light Snow
8:53 AM 8.1 °F -5.3 °F 3.0 °F 80% 29.99 in 1.2 mi NW 9.2 mph - 0.01 in Snow Light Snow
9:00 AM 8.1 °F -5.3 °F 3.0 °F 80% 29.82 in 2.0 mi NW 9.2 mph - 0.00 in Snow Light Snow
9:25 AM 7.0 °F -7.5 °F 1.9 °F 80% 29.85 in 1.5 mi WNW 10.4 mph - 0.00 in Snow Light Snow
9:35 AM 7.0 °F -8.3 °F 1.9 °F 80% 29.85 in 3.0 mi WNW 11.5 mph - 0.00 in Snow Light Snow
9:53 AM 6.1 °F -9.5 °F 1.0 °F 80% 30.03 in 5.0 mi NW 11.5 mph - 0.00 in Snow Light Snow
10:53 AM 7.0 °F -6.6 °F -0.0 °F 73% 30.06 in 5.0 mi WNW 9.2 mph - 0.00 in Snow Light Snow
11:06 AM 6.1 °F -7.8 °F -0.0 °F 76% 29.89 in 6.0 mi WNW 9.2 mph - 0.00 in Snow Light Snow
11:32 AM 6.1 °F -8.7 °F -0.0 °F 76% 29.90 in 10.0 mi WNW 10.4 mph - 0.00 in   Overcast
11:53 AM 6.1 °F -8.7 °F -0.0 °F 76% 30.07 in 10.0 mi West 10.4 mph - 0.00 in   Overcast
12:53 PM 6.1 °F -7.8 °F -0.0 °F 76% 30.09 in 10.0 mi West 9.2 mph - N/A   Overcast
1:09 PM 7.0 °F -4.5 °F -0.0 °F 73% 29.92 in 10.0 mi West 6.9 mph - N/A   Overcast
1:39 PM 7.0 °F -7.5 °F -0.0 °F 73% 29.92 in 10.0 mi West 10.4 mph - N/A   Overcast
1:53 PM 7.0 °F -9.1 °F -0.0 °F 73% 30.10 in 10.0 mi West 12.7 mph - N/A   Overcast
2:41 PM 6.1 °F -5.6 °F -0.9 °F 73% 29.96 in 10.0 mi West 6.9 mph - N/A   Overcast
2:53 PM 6.1 °F -6.8 °F -0.9 °F 73% 30.13 in 10.0 mi WNW 8.1 mph - N/A   Mostly Cloudy
3:05 PM 6.1 °F -6.8 °F -0.9 °F 73% 29.97 in 10.0 mi WNW 8.1 mph - N/A   Overcast
3:40 PM 5.0 °F -5.6 °F -0.9 °F 76% 29.98 in 3.0 mi West 5.8 mph - 0.00 in Snow Light Snow
3:53 PM 5.0 °F -5.6 °F -0.9 °F 76% 30.16 in 4.0 mi WSW 5.8 mph - 0.00 in   Haze
4:06 PM 5.0 °F -5.6 °F -0.9 °F 76% 30.00 in 9.0 mi WSW 5.8 mph - N/A   Overcast
4:53 PM 5.0 °F -4.1 °F -0.0 °F 80% 30.18 in 3.0 mi West 4.6 mph - 0.00 in Snow Light Snow
5:53 PM 5.0 °F -4.1 °F -0.0 °F 80% 30.19 in 6.0 mi WSW 4.6 mph - 0.01 in Snow Light Snow
6:53 PM 6.1 °F -2.8 °F 1.0 °F 80% 30.21 in 10.0 mi West 4.6 mph - 0.00 in   Overcast
7:53 PM 6.1 °F -4.3 °F -0.0 °F 76% 30.22 in 4.0 mi West 5.8 mph - 0.00 in Snow Light Snow
8:53 PM 5.0 °F -4.1 °F 1.0 °F 84% 30.23 in 3.0 mi WSW 4.6 mph - 0.00 in Snow Light Snow
9:53 PM 5.0 °F -4.1 °F 1.0 °F 84% 30.24 in 4.0 mi SSW 4.6 mph - 0.00 in Snow Light Snow
10:53 PM 6.1 °F -5.6 °F 1.0 °F 80% 30.25 in 6.0 mi SW 6.9 mph - 0.00 in Snow Light Snow
11:53 PM 7.0 °F -4.5 °F 1.0 °F 77% 30.25 in 10.0 mi SW 6.9 mph - 0.00 in   Overcast